This is the latest recevied weather packets stored in our database for station/object KF7PIZ. If no packets are shown the sender has not sent any weather packets the latest 1 day(s).
| Time | Temp. | Humidity | Pressure | Rain* | Wind** | Luminosity | Snow |
|---|---|---|---|---|---|---|---|
| 1778025930 | 22.78° C | 31% | 1012.2 hPa | 0 mm | 0 m/s | 91 W/m² | - |
| 1778025628 | 22.22° C | 32% | 1012.3 hPa | 0 mm | 0 m/s | 69 W/m² | - |
| 1778025326 | 22.78° C | 32% | 1012.3 hPa | 0 mm | 0 m/s | 44 W/m² | - |
| 1778025022 | 23.33° C | 32% | 1012.3 hPa | 0 mm | 0.45 m/s, 219° | 234 W/m² | - |
| 1778024719 | 23.89° C | 33% | 1012.5 hPa | 0 mm | 0 m/s | 368 W/m² | - |
| 1778024416 | 23.89° C | 33% | 1012.3 hPa | 0 mm | 0 m/s | 363 W/m² | - |
| 1778024114 | 23.89° C | 37% | 1012.4 hPa | 0 mm | 0 m/s | 72 W/m² | - |
| 1778023811 | 22.78° C | 40% | 1012.4 hPa | 0 mm | 0 m/s | 256 W/m² | - |
| 1778023509 | 23.33° C | 36% | 1012.4 hPa | 0 mm | 0 m/s | 62 W/m² | - |
| 1778023206 | 23.33° C | 38% | 1012.6 hPa | 0 mm | 0 m/s | 77 W/m² | - |
| 1778022903 | 22.78° C | 40% | 1012.8 hPa | 0 mm | 0 m/s | 49 W/m² | - |
| 1778022601 | 22.22° C | 37% | 1012.4 hPa | 0 mm | 0 m/s | 69 W/m² | - |
| 1778022298 | 22.22° C | 41% | 1012.6 hPa | 0 mm | 0 m/s | 203 W/m² | - |
| 1778021994 | 22.22° C | 41% | 1012.6 hPa | 0 mm | 0 m/s | 104 W/m² | - |
| 1778021692 | 21.67° C | 41% | 1012.8 hPa | 0 mm | 0 m/s | 103 W/m² | - |
| 1778021388 | 21.67° C | 43% | 1012.9 hPa | 0 mm | 0 m/s | 118 W/m² | - |
| 1778021085 | 21.11° C | 43% | 1012.9 hPa | 0 mm | 0 m/s | 95 W/m² | - |
| 1778020782 | 21.11° C | 45% | 1012.9 hPa | 0 mm | 0 m/s | 73 W/m² | - |
| 1778020479 | 20.56° C | 44% | 1013.1 hPa | 0 mm | 0 m/s | 89 W/m² | - |
| 1778020175 | 20° C | 46% | 1013 hPa | 0 mm | 0 m/s | 338 W/m² | - |
| 1778019872 | 20° C | 48% | 1013.2 hPa | 0 mm | 0 m/s | 319 W/m² | - |
| 1778019567 | 20° C | 46% | 1013.2 hPa | 0 mm | 0 m/s | 70 W/m² | - |
| 1778019265 | 20° C | 42% | 1013 hPa | 0 mm | 0 m/s | 85 W/m² | - |
| 1778018962 | 21.11° C | 44% | 1013.6 hPa | 0 mm | 0 m/s | 69 W/m² | - |
| 1778018659 | 21.11° C | 45% | 1013.3 hPa | 0 mm | 0 m/s | 127 W/m² | - |
* Rain latest hour (hover to see other rain measurements)
** Current wind speed in m/s (hover to see current wind gust speed)